Year,Month,Day,Hour,Minute,Value (Times are PST for temperature in C)
2011,07,28,00,00,13.70
2011,07,28,00,01,13.70
2011,07,28,00,02,13.70
2011,07,28,00,03,13.70
2011,07,28,00,04,13.70
2011,07,28,00,05,13.60
2011,07,28,00,06,13.60
2011,07,28,00,07,13.60
2011,07,28,00,08,13.60
2011,07,28,00,09,13.60
2011,07,28,00,10,13.60
2011,07,28,00,11,13.60
2011,07,28,00,12,13.60
2011,07,28,00,13,13.60
2011,07,28,00,14,13.60
2011,07,28,00,15,13.60
2011,07,28,00,16,13.60
2011,07,28,00,17,13.60
2011,07,28,00,18,13.60
2011,07,28,00,19,13.60
2011,07,28,00,20,13.60
2011,07,28,00,21,13.60
2011,07,28,00,22,13.60
2011,07,28,00,23,13.50
2011,07,28,00,24,13.50
2011,07,28,00,25,13.50
2011,07,28,00,26,13.50
2011,07,28,00,27,13.50
2011,07,28,00,28,13.40
2011,07,28,00,29,13.40
2011,07,28,00,30,13.40
2011,07,28,00,31,13.40
2011,07,28,00,32,13.30
2011,07,28,00,33,13.30
2011,07,28,00,34,13.30
2011,07,28,00,35,13.30
2011,07,28,00,36,13.30
2011,07,28,00,37,13.30
2011,07,28,00,38,13.30
2011,07,28,00,39,13.30
2011,07,28,00,40,13.30
2011,07,28,00,41,13.30
2011,07,28,00,42,13.30
2011,07,28,00,43,13.20
2011,07,28,00,44,13.20
2011,07,28,00,45,13.20
2011,07,28,00,46,13.20
2011,07,28,00,47,13.20
2011,07,28,00,48,13.20
2011,07,28,00,49,13.20
2011,07,28,00,50,13.20
2011,07,28,00,51,13.20
2011,07,28,00,52,13.10
2011,07,28,00,53,13.10
2011,07,28,00,54,13.10
2011,07,28,00,55,13.10
2011,07,28,00,56,13.10
2011,07,28,00,57,13.10
2011,07,28,00,58,13.10
2011,07,28,00,59,13.10
2011,07,28,01,00,13.10
2011,07,28,01,01,13.10
2011,07,28,01,02,13.10
2011,07,28,01,03,13.10
2011,07,28,01,04,13.10
2011,07,28,01,05,13.10
2011,07,28,01,06,13.10
2011,07,28,01,07,13.10
2011,07,28,01,08,13.10
2011,07,28,01,09,13.10
2011,07,28,01,10,13.10
2011,07,28,01,11,13.10
2011,07,28,01,12,13.10
2011,07,28,01,13,13.00
2011,07,28,01,14,13.00
2011,07,28,01,15,13.00
2011,07,28,01,16,12.90
2011,07,28,01,17,12.90
2011,07,28,01,18,12.90
2011,07,28,01,19,12.80
2011,07,28,01,20,12.80
2011,07,28,01,21,12.80
2011,07,28,01,22,12.80
2011,07,28,01,23,12.80
2011,07,28,01,24,12.80
2011,07,28,01,25,12.80
2011,07,28,01,26,12.80
2011,07,28,01,27,12.80
2011,07,28,01,28,12.80
2011,07,28,01,29,12.80
2011,07,28,01,30,12.80
2011,07,28,01,31,12.80
2011,07,28,01,32,12.80
2011,07,28,01,33,12.80
2011,07,28,01,34,12.80
2011,07,28,01,35,12.80
2011,07,28,01,36,12.80
2011,07,28,01,37,12.80
2011,07,28,01,38,12.80
2011,07,28,01,39,12.80
2011,07,28,01,40,12.80
2011,07,28,01,41,12.80
2011,07,28,01,42,12.80
2011,07,28,01,43,12.80
2011,07,28,01,44,12.80
2011,07,28,01,45,12.80
2011,07,28,01,46,12.80
2011,07,28,01,47,12.80
2011,07,28,01,48,12.80
2011,07,28,01,49,12.80
2011,07,28,01,50,12.70
2011,07,28,01,51,12.70
2011,07,28,01,52,12.70
2011,07,28,01,53,12.70
2011,07,28,01,54,12.70
2011,07,28,01,55,12.60
2011,07,28,01,56,12.60
2011,07,28,01,57,12.60
2011,07,28,01,58,12.60
2011,07,28,01,59,12.60
2011,07,28,02,00,12.60
2011,07,28,02,01,12.60
2011,07,28,02,02,12.60
2011,07,28,02,03,12.50
2011,07,28,02,04,12.50
2011,07,28,02,05,12.50
2011,07,28,02,06,12.50
2011,07,28,02,07,12.50
2011,07,28,02,08,12.50
2011,07,28,02,09,12.40
2011,07,28,02,10,12.40
2011,07,28,02,11,12.40
2011,07,28,02,12,12.30
2011,07,28,02,13,12.30
2011,07,28,02,14,12.30
2011,07,28,02,15,12.30
2011,07,28,02,16,12.30
2011,07,28,02,17,12.30
2011,07,28,02,18,12.30
2011,07,28,02,19,12.30
2011,07,28,02,20,12.30
2011,07,28,02,21,12.30
2011,07,28,02,22,12.30
2011,07,28,02,23,12.30
2011,07,28,02,24,12.30
2011,07,28,02,25,12.20
2011,07,28,02,26,12.30
2011,07,28,02,27,12.20
2011,07,28,02,28,12.20
2011,07,28,02,29,12.20
2011,07,28,02,30,12.20
2011,07,28,02,31,12.20
2011,07,28,02,32,12.20
2011,07,28,02,33,12.20
2011,07,28,02,34,12.20
2011,07,28,02,35,12.20
2011,07,28,02,36,12.20
2011,07,28,02,37,12.20
2011,07,28,02,38,12.20
2011,07,28,02,39,12.20
2011,07,28,02,40,12.10
2011,07,28,02,41,12.10
2011,07,28,02,42,12.10
2011,07,28,02,43,12.10
2011,07,28,02,44,12.10
2011,07,28,02,45,12.10
2011,07,28,02,46,12.10
2011,07,28,02,47,12.00
2011,07,28,02,48,12.00
2011,07,28,02,49,12.00
2011,07,28,02,50,12.00
2011,07,28,02,51,12.00
2011,07,28,02,52,11.90
2011,07,28,02,53,11.90
2011,07,28,02,54,11.90
2011,07,28,02,55,11.90
2011,07,28,02,56,11.80
2011,07,28,02,57,11.80
2011,07,28,02,58,11.80
2011,07,28,02,59,11.80
2011,07,28,03,00,11.80
2011,07,28,03,01,11.80
2011,07,28,03,02,11.80
2011,07,28,03,03,11.80
2011,07,28,03,04,11.80
2011,07,28,03,05,11.80
2011,07,28,03,06,11.80
2011,07,28,03,07,11.80
2011,07,28,03,08,11.80
2011,07,28,03,09,11.90
2011,07,28,03,10,11.90
2011,07,28,03,11,12.00
2011,07,28,03,12,12.00
2011,07,28,03,13,12.00
2011,07,28,03,14,12.00
2011,07,28,03,15,11.90
2011,07,28,03,16,11.90
2011,07,28,03,17,11.90
2011,07,28,03,18,11.90
2011,07,28,03,19,11.90
2011,07,28,03,20,11.90
2011,07,28,03,21,11.80
2011,07,28,03,22,11.80
2011,07,28,03,23,11.80
2011,07,28,03,24,11.80
2011,07,28,03,25,11.80
2011,07,28,03,26,11.70
2011,07,28,03,27,11.70
2011,07,28,03,28,11.60
2011,07,28,03,29,11.60
2011,07,28,03,30,11.60
2011,07,28,03,31,11.60
2011,07,28,03,32,11.60
2011,07,28,03,33,11.60
2011,07,28,03,34,11.70
2011,07,28,03,35,11.70
2011,07,28,03,36,11.70
2011,07,28,03,37,11.70
2011,07,28,03,38,11.70
2011,07,28,03,39,11.80
2011,07,28,03,40,11.80
2011,07,28,03,41,11.80
2011,07,28,03,42,11.80
2011,07,28,03,43,11.80
2011,07,28,03,44,11.80
2011,07,28,03,45,11.80
2011,07,28,03,46,11.80
2011,07,28,03,47,11.80
2011,07,28,03,48,11.80
2011,07,28,03,49,11.80
2011,07,28,03,50,11.80
2011,07,28,03,51,11.80
2011,07,28,03,52,11.80
2011,07,28,03,53,11.70
2011,07,28,03,54,11.70
2011,07,28,03,55,11.70
2011,07,28,03,56,11.70
2011,07,28,03,57,11.70
2011,07,28,03,58,11.70
2011,07,28,03,59,11.70
2011,07,28,04,00,11.70
2011,07,28,04,01,11.70
2011,07,28,04,02,11.80
2011,07,28,04,03,11.80
2011,07,28,04,04,11.80
2011,07,28,04,05,11.70
2011,07,28,04,06,11.70
2011,07,28,04,07,11.70
2011,07,28,04,08,11.60
2011,07,28,04,09,11.60
2011,07,28,04,10,11.60
2011,07,28,04,11,11.60
2011,07,28,04,12,11.60
2011,07,28,04,13,11.60
2011,07,28,04,14,11.60
2011,07,28,04,15,11.60
2011,07,28,04,16,11.60
2011,07,28,04,17,11.60
2011,07,28,04,18,11.60
2011,07,28,04,19,11.60
2011,07,28,04,20,11.50
2011,07,28,04,21,11.40
2011,07,28,04,22,11.30
2011,07,28,04,23,11.30
2011,07,28,04,24,11.20
2011,07,28,04,25,11.10
2011,07,28,04,26,11.10
2011,07,28,04,27,11.10
2011,07,28,04,28,11.10
2011,07,28,04,29,11.10
2011,07,28,04,30,11.10
2011,07,28,04,31,11.10
2011,07,28,04,32,11.10
2011,07,28,04,33,11.10
2011,07,28,04,34,11.10
2011,07,28,04,35,11.20
2011,07,28,04,36,11.20
2011,07,28,04,37,11.20
2011,07,28,04,38,11.20
2011,07,28,04,39,11.20
2011,07,28,04,40,11.20
2011,07,28,04,41,11.20
2011,07,28,04,42,11.20
2011,07,28,04,43,11.20
2011,07,28,04,44,11.20
2011,07,28,04,45,11.20
2011,07,28,04,46,11.20
2011,07,28,04,47,11.20
2011,07,28,04,48,11.20
2011,07,28,04,49,11.20
2011,07,28,04,50,11.20
2011,07,28,04,51,11.10
2011,07,28,04,52,11.10
2011,07,28,04,53,11.10
2011,07,28,04,54,11.10
2011,07,28,04,55,11.10
2011,07,28,04,56,11.10
2011,07,28,04,57,11.10
2011,07,28,04,58,10.90
2011,07,28,04,59,10.90
2011,07,28,05,00,10.90
2011,07,28,05,01,11.00
2011,07,28,05,02,11.10
2011,07,28,05,03,11.10
2011,07,28,05,04,11.10
2011,07,28,05,05,11.10
2011,07,28,05,06,11.20
2011,07,28,05,07,11.30
2011,07,28,05,08,11.30
2011,07,28,05,09,11.40
2011,07,28,05,10,11.40
2011,07,28,05,11,11.40
2011,07,28,05,12,11.40
2011,07,28,05,13,11.50
2011,07,28,05,14,11.60
2011,07,28,05,15,11.60
2011,07,28,05,16,11.60
2011,07,28,05,17,11.60
2011,07,28,05,18,11.60
2011,07,28,05,19,11.60
2011,07,28,05,20,11.60
2011,07,28,05,21,11.60
2011,07,28,05,22,11.40
2011,07,28,05,23,11.40
2011,07,28,05,24,11.40
2011,07,28,05,25,11.40
2011,07,28,05,26,11.40
2011,07,28,05,27,11.30
2011,07,28,05,28,11.30
2011,07,28,05,29,11.30
2011,07,28,05,30,11.30
2011,07,28,05,31,11.30
2011,07,28,05,32,11.30
2011,07,28,05,33,11.40
2011,07,28,05,34,11.30
2011,07,28,05,35,11.30
2011,07,28,05,36,11.20
2011,07,28,05,37,11.20
2011,07,28,05,38,11.10
2011,07,28,05,39,11.10
2011,07,28,05,40,11.10
2011,07,28,05,41,11.10
2011,07,28,05,42,10.90
2011,07,28,05,43,10.90
2011,07,28,05,44,10.90
2011,07,28,05,45,10.90
2011,07,28,05,46,10.90
2011,07,28,05,47,10.90
2011,07,28,05,48,10.90
2011,07,28,05,49,10.90
2011,07,28,05,50,10.90
2011,07,28,05,51,10.90
2011,07,28,05,52,10.90
2011,07,28,05,53,10.90
2011,07,28,05,54,10.90
2011,07,28,05,55,10.90
2011,07,28,05,56,10.90
2011,07,28,05,57,10.90
2011,07,28,05,58,11.00
2011,07,28,05,59,11.10
2011,07,28,06,00,11.10
2011,07,28,06,01,11.10
2011,07,28,06,02,11.10
2011,07,28,06,03,11.10
2011,07,28,06,04,11.00
2011,07,28,06,05,10.90
2011,07,28,06,06,10.80
2011,07,28,06,07,10.80
2011,07,28,06,08,10.70
2011,07,28,06,09,10.60
2011,07,28,06,10,10.60
2011,07,28,06,11,10.60
2011,07,28,06,12,10.60
2011,07,28,06,13,10.60
2011,07,28,06,14,10.60
2011,07,28,06,15,10.50
2011,07,28,06,16,10.50
2011,07,28,06,17,10.60
2011,07,28,06,18,10.60
2011,07,28,06,19,10.60
2011,07,28,06,20,10.60
2011,07,28,06,21,10.60
2011,07,28,06,22,10.70
2011,07,28,06,23,10.70
2011,07,28,06,24,10.80
2011,07,28,06,25,10.80
2011,07,28,06,26,10.90
2011,07,28,06,27,10.90
2011,07,28,06,28,10.90
2011,07,28,06,29,10.90
2011,07,28,06,30,10.90
2011,07,28,06,31,11.00
2011,07,28,06,32,11.10
2011,07,28,06,33,11.10
2011,07,28,06,34,11.20
2011,07,28,06,35,11.20
2011,07,28,06,36,11.30
2011,07,28,06,37,11.30
2011,07,28,06,38,11.40
2011,07,28,06,39,11.40
2011,07,28,06,40,11.40
2011,07,28,06,41,11.40
2011,07,28,06,42,11.40
2011,07,28,06,43,11.40
2011,07,28,06,44,11.40
2011,07,28,06,45,11.40
2011,07,28,06,46,11.40
2011,07,28,06,47,11.40
2011,07,28,06,48,11.50
2011,07,28,06,49,11.60
2011,07,28,06,50,11.60
2011,07,28,06,51,11.60
2011,07,28,06,52,11.70
2011,07,28,06,53,11.70
2011,07,28,06,54,11.80
2011,07,28,06,55,11.80
2011,07,28,06,56,11.80
2011,07,28,06,57,11.90
2011,07,28,06,58,12.00
2011,07,28,06,59,12.00
2011,07,28,07,00,12.00
2011,07,28,07,01,12.10
2011,07,28,07,02,12.10
2011,07,28,07,03,12.10
2011,07,28,07,04,12.10
2011,07,28,07,05,12.20
2011,07,28,07,06,12.20
2011,07,28,07,07,12.30
2011,07,28,07,08,12.30
2011,07,28,07,09,12.30
2011,07,28,07,10,12.50
2011,07,28,07,11,12.50
2011,07,28,07,12,12.60
2011,07,28,07,13,12.70
2011,07,28,07,14,12.70
2011,07,28,07,15,12.70
2011,07,28,07,16,12.80
2011,07,28,07,17,12.80
2011,07,28,07,18,12.80
2011,07,28,07,19,12.80
2011,07,28,07,20,12.80
2011,07,28,07,21,12.80
2011,07,28,07,22,12.90
2011,07,28,07,23,13.00
2011,07,28,07,24,13.10
2011,07,28,07,25,13.10
2011,07,28,07,26,13.10
2011,07,28,07,27,13.10
2011,07,28,07,28,13.10
2011,07,28,07,29,13.10
2011,07,28,07,30,13.20
2011,07,28,07,31,13.30
2011,07,28,07,32,13.30
2011,07,28,07,33,13.40
2011,07,28,07,34,13.40
2011,07,28,07,35,13.30
2011,07,28,07,36,13.30
2011,07,28,07,37,13.30
2011,07,28,07,38,13.30
2011,07,28,07,39,13.40
2011,07,28,07,40,13.40
2011,07,28,07,41,13.40
2011,07,28,07,42,13.40
2011,07,28,07,43,13.40
2011,07,28,07,44,13.40
2011,07,28,07,45,13.40
2011,07,28,07,46,13.40
2011,07,28,07,47,13.50
2011,07,28,07,48,13.50
2011,07,28,07,49,13.50
2011,07,28,07,50,13.50
2011,07,28,07,51,13.50
2011,07,28,07,52,13.50
2011,07,28,07,53,13.60
2011,07,28,07,54,13.60
2011,07,28,07,55,13.60
2011,07,28,07,56,13.70
2011,07,28,07,57,13.70
2011,07,28,07,58,13.70
2011,07,28,07,59,13.80
2011,07,28,08,00,13.80
2011,07,28,08,01,13.90
2011,07,28,08,02,14.00
2011,07,28,08,03,14.10
2011,07,28,08,04,14.20
2011,07,28,08,05,14.20
2011,07,28,08,06,14.20
2011,07,28,08,07,14.30
2011,07,28,08,08,14.40
2011,07,28,08,09,14.50
2011,07,28,08,10,14.60
2011,07,28,08,11,14.60
2011,07,28,08,12,14.80
2011,07,28,08,13,14.80
2011,07,28,08,14,14.90
2011,07,28,08,15,15.00
2011,07,28,08,16,15.10
2011,07,28,08,17,15.20
2011,07,28,08,18,15.30
2011,07,28,08,19,15.30
2011,07,28,08,20,15.40
2011,07,28,08,21,15.50
2011,07,28,08,22,15.50
2011,07,28,08,23,15.60
2011,07,28,08,24,15.60
2011,07,28,08,25,15.70
2011,07,28,08,26,15.80
2011,07,28,08,27,15.90
2011,07,28,08,28,16.00
2011,07,28,08,29,16.10
2011,07,28,08,30,16.10
2011,07,28,08,31,16.20
2011,07,28,08,32,16.30
2011,07,28,08,33,16.30
2011,07,28,08,34,16.30
2011,07,28,08,35,16.40
2011,07,28,08,36,16.40
2011,07,28,08,37,16.40
2011,07,28,08,38,16.40
2011,07,28,08,39,16.60
2011,07,28,08,40,16.60
2011,07,28,08,41,16.60
2011,07,28,08,42,16.60
2011,07,28,08,43,16.60
2011,07,28,08,44,16.70
2011,07,28,08,45,16.70
2011,07,28,08,46,16.70
2011,07,28,08,47,16.70
2011,07,28,08,48,16.80
2011,07,28,08,49,16.90
2011,07,28,08,50,17.00
2011,07,28,08,51,17.00
2011,07,28,08,52,17.10
2011,07,28,08,53,17.20
2011,07,28,08,54,17.30
2011,07,28,08,55,17.30
2011,07,28,08,56,17.40
2011,07,28,08,57,17.40
2011,07,28,08,58,17.40
2011,07,28,08,59,17.40
2011,07,28,09,00,17.40
2011,07,28,09,01,17.40
2011,07,28,09,02,17.50
2011,07,28,09,03,17.50
2011,07,28,09,04,17.60
2011,07,28,09,05,17.70
2011,07,28,09,06,17.70
2011,07,28,09,07,17.80
2011,07,28,09,08,17.90
2011,07,28,09,09,17.90
2011,07,28,09,10,17.90
2011,07,28,09,11,17.90
2011,07,28,09,12,18.00
2011,07,28,09,13,18.10
2011,07,28,09,14,18.20
2011,07,28,09,15,18.30
2011,07,28,09,16,18.20
2011,07,28,09,17,18.20
2011,07,28,09,18,18.20
2011,07,28,09,19,18.20
2011,07,28,09,20,18.30
2011,07,28,09,21,18.30
2011,07,28,09,22,18.40
2011,07,28,09,23,18.40
2011,07,28,09,24,18.40
2011,07,28,09,25,18.40
2011,07,28,09,26,18.50
2011,07,28,09,27,18.50
2011,07,28,09,28,18.50
2011,07,28,09,29,18.50
2011,07,28,09,30,18.50
2011,07,28,09,31,18.50
2011,07,28,09,32,18.60
2011,07,28,09,33,18.60
2011,07,28,09,34,18.50
2011,07,28,09,35,18.50
2011,07,28,09,36,18.50
2011,07,28,09,37,18.50
2011,07,28,09,38,18.60
2011,07,28,09,39,18.70
2011,07,28,09,40,18.70
2011,07,28,09,41,18.80
2011,07,28,09,42,18.90
2011,07,28,09,43,18.90
2011,07,28,09,44,18.90
2011,07,28,09,45,18.90
2011,07,28,09,46,18.90
2011,07,28,09,47,19.00
2011,07,28,09,48,19.10
2011,07,28,09,49,19.10
2011,07,28,09,50,19.10
2011,07,28,09,51,19.20
2011,07,28,09,52,19.20
2011,07,28,09,53,19.20
2011,07,28,09,54,19.10
2011,07,28,09,55,19.10
2011,07,28,09,56,19.10
2011,07,28,09,57,19.10
2011,07,28,09,58,19.00
2011,07,28,09,59,18.90
2011,07,28,10,00,18.70
2011,07,28,10,01,18.70
2011,07,28,10,02,18.60
2011,07,28,10,03,18.60
2011,07,28,10,04,18.60
2011,07,28,10,05,18.60
2011,07,28,10,06,18.70
2011,07,28,10,07,18.70
2011,07,28,10,08,18.80
2011,07,28,10,09,18.80
2011,07,28,10,10,18.90
2011,07,28,10,11,19.00
2011,07,28,10,12,19.10
2011,07,28,10,13,19.10
2011,07,28,10,14,19.30
2011,07,28,10,15,19.30
2011,07,28,10,16,19.40
2011,07,28,10,17,19.50
2011,07,28,10,18,19.50
2011,07,28,10,19,19.40
2011,07,28,10,20,19.40
2011,07,28,10,21,19.50
2011,07,28,10,22,19.50
2011,07,28,10,23,19.50
2011,07,28,10,24,19.50
2011,07,28,10,25,19.40
2011,07,28,10,26,19.30
2011,07,28,10,27,19.30
2011,07,28,10,28,19.40
2011,07,28,10,29,19.40
2011,07,28,10,30,19.50
2011,07,28,10,31,19.60
2011,07,28,10,32,19.60
2011,07,28,10,33,19.60
2011,07,28,10,34,19.50
2011,07,28,10,35,19.40
2011,07,28,10,36,19.30
2011,07,28,10,37,19.30
2011,07,28,10,38,19.30
2011,07,28,10,39,19.30
2011,07,28,10,40,19.40
2011,07,28,10,41,19.50
2011,07,28,10,42,19.50
2011,07,28,10,43,19.50
2011,07,28,10,44,19.60
2011,07,28,10,45,19.50
2011,07,28,10,46,19.50
2011,07,28,10,47,19.60
2011,07,28,10,48,19.60
2011,07,28,10,49,19.70
2011,07,28,10,50,19.70
2011,07,28,10,51,19.60
2011,07,28,10,52,19.60
2011,07,28,10,53,19.60
2011,07,28,10,54,19.60
2011,07,28,10,55,19.60
2011,07,28,10,56,19.60
2011,07,28,10,57,19.60
2011,07,28,10,58,19.60
2011,07,28,10,59,19.60
2011,07,28,11,00,19.70
2011,07,28,11,01,19.60
2011,07,28,11,02,19.60
2011,07,28,11,03,19.50
2011,07,28,11,04,19.40
2011,07,28,11,05,19.40
2011,07,28,11,06,19.40
2011,07,28,11,07,19.40
2011,07,28,11,08,19.40
2011,07,28,11,09,19.40
2011,07,28,11,10,19.40
2011,07,28,11,11,19.30
2011,07,28,11,12,19.20
2011,07,28,11,13,19.20
2011,07,28,11,14,19.20
2011,07,28,11,15,19.20
2011,07,28,11,16,19.20
2011,07,28,11,17,19.30
2011,07,28,11,18,19.30
2011,07,28,11,19,19.40
2011,07,28,11,20,19.50
2011,07,28,11,21,19.50
2011,07,28,11,22,19.50
2011,07,28,11,23,19.30
2011,07,28,11,24,19.30
2011,07,28,11,25,19.30
2011,07,28,11,26,19.20
2011,07,28,11,27,19.20
2011,07,28,11,28,19.30
2011,07,28,11,29,19.30
2011,07,28,11,30,19.40
2011,07,28,11,31,19.40
2011,07,28,11,32,19.50
2011,07,28,11,33,19.60
2011,07,28,11,34,19.60
2011,07,28,11,35,19.60
2011,07,28,11,36,19.60
2011,07,28,11,37,19.70
2011,07,28,11,38,19.80
2011,07,28,11,39,19.80
2011,07,28,11,40,19.70
2011,07,28,11,41,19.60
2011,07,28,11,42,19.60
2011,07,28,11,43,19.60
2011,07,28,11,44,19.60
2011,07,28,11,45,19.40
2011,07,28,11,46,19.30
2011,07,28,11,47,19.10
2011,07,28,11,48,19.00
2011,07,28,11,49,18.90
2011,07,28,11,50,18.90
2011,07,28,11,51,18.80
2011,07,28,11,52,18.60
2011,07,28,11,53,18.60
2011,07,28,11,54,18.60
2011,07,28,11,55,18.70
2011,07,28,11,56,18.80
2011,07,28,11,57,18.90
2011,07,28,11,58,19.00
2011,07,28,11,59,19.10
2011,07,28,12,00,19.20
2011,07,28,12,01,19.30
2011,07,28,12,02,19.40
2011,07,28,12,03,19.60
2011,07,28,12,04,19.70
2011,07,28,12,05,19.80
2011,07,28,12,06,19.90
2011,07,28,12,07,19.90
2011,07,28,12,08,20.00
2011,07,28,12,09,20.10
2011,07,28,12,10,20.20
2011,07,28,12,11,20.20
2011,07,28,12,12,20.10
2011,07,28,12,13,20.00
2011,07,28,12,14,19.90
2011,07,28,12,15,19.90
2011,07,28,12,16,19.80
2011,07,28,12,17,19.80
2011,07,28,12,18,19.80
2011,07,28,12,19,19.90
2011,07,28,12,20,20.00
2011,07,28,12,21,20.20
2011,07,28,12,22,20.20
2011,07,28,12,23,20.30
2011,07,28,12,24,20.30
2011,07,28,12,25,20.20
2011,07,28,12,26,20.10
2011,07,28,12,27,20.10
2011,07,28,12,28,20.20
2011,07,28,12,29,20.20
2011,07,28,12,30,20.20
2011,07,28,12,31,20.10
2011,07,28,12,32,20.10
2011,07,28,12,33,20.20
2011,07,28,12,34,20.20
2011,07,28,12,35,20.20
2011,07,28,12,36,20.20
2011,07,28,12,37,20.20
2011,07,28,12,38,20.20
2011,07,28,12,39,20.20
2011,07,28,12,40,20.30
2011,07,28,12,41,20.50
2011,07,28,12,42,20.60
2011,07,28,12,43,20.60
2011,07,28,12,44,20.60
2011,07,28,12,45,20.60
2011,07,28,12,46,20.60
2011,07,28,12,47,20.60
2011,07,28,12,48,20.50
2011,07,28,12,49,20.50
2011,07,28,12,50,20.50
2011,07,28,12,51,20.50
2011,07,28,12,52,20.60
2011,07,28,12,53,20.60
2011,07,28,12,54,20.70
2011,07,28,12,55,20.80
2011,07,28,12,56,21.00
2011,07,28,12,57,21.00
2011,07,28,12,58,21.20
2011,07,28,12,59,21.20
2011,07,28,13,00,21.10
2011,07,28,13,01,21.10
2011,07,28,13,02,21.10
2011,07,28,13,03,21.20
2011,07,28,13,04,21.30
2011,07,28,13,05,21.30
2011,07,28,13,06,21.30
2011,07,28,13,07,21.40
2011,07,28,13,08,21.30
2011,07,28,13,09,21.30
2011,07,28,13,10,21.30
2011,07,28,13,11,21.30
2011,07,28,13,12,21.30
2011,07,28,13,13,21.30
2011,07,28,13,14,21.30
2011,07,28,13,15,21.40
2011,07,28,13,16,21.40
2011,07,28,13,17,21.50
2011,07,28,13,18,21.60
2011,07,28,13,19,21.70
2011,07,28,13,20,21.80
2011,07,28,13,21,21.90
2011,07,28,13,22,21.90
2011,07,28,13,23,21.90
2011,07,28,13,24,21.90
2011,07,28,13,25,21.90
2011,07,28,13,26,22.00
2011,07,28,13,27,22.10
2011,07,28,13,28,22.10
2011,07,28,13,29,22.00
2011,07,28,13,30,21.90
2011,07,28,13,31,21.90
2011,07,28,13,32,21.80
2011,07,28,13,33,21.80
2011,07,28,13,34,21.80
2011,07,28,13,35,21.80
2011,07,28,13,36,21.90
2011,07,28,13,37,21.90
2011,07,28,13,38,21.90
2011,07,28,13,39,21.80
2011,07,28,13,40,21.70
2011,07,28,13,41,21.70
2011,07,28,13,42,21.70
2011,07,28,13,43,21.70
2011,07,28,13,44,21.60
2011,07,28,13,45,21.60
2011,07,28,13,46,21.60
2011,07,28,13,47,21.60
2011,07,28,13,48,21.60
2011,07,28,13,49,21.60
2011,07,28,13,50,21.60
2011,07,28,13,51,21.60
2011,07,28,13,52,21.60
2011,07,28,13,53,21.80
2011,07,28,13,54,21.90
2011,07,28,13,55,22.00
2011,07,28,13,56,22.00
2011,07,28,13,57,21.80
2011,07,28,13,58,21.60
2011,07,28,13,59,21.60
2011,07,28,14,00,21.50
2011,07,28,14,01,21.40
2011,07,28,14,02,21.30
2011,07,28,14,03,21.30
2011,07,28,14,04,21.30
2011,07,28,14,05,21.40
2011,07,28,14,06,21.40
2011,07,28,14,07,21.40
2011,07,28,14,08,21.30
2011,07,28,14,09,21.20
2011,07,28,14,10,21.10
2011,07,28,14,11,21.00
2011,07,28,14,12,20.90
2011,07,28,14,13,20.80
2011,07,28,14,14,20.80
2011,07,28,14,15,20.70
2011,07,28,14,16,20.80
2011,07,28,14,17,20.80
2011,07,28,14,18,20.80
2011,07,28,14,19,20.80
2011,07,28,14,20,21.00
2011,07,28,14,21,21.00
2011,07,28,14,22,21.10
2011,07,28,14,23,21.20
2011,07,28,14,24,21.30
2011,07,28,14,25,21.30
2011,07,28,14,26,21.30
2011,07,28,14,27,21.20
2011,07,28,14,28,21.00
2011,07,28,14,29,20.90
2011,07,28,14,30,20.90
2011,07,28,14,31,20.80
2011,07,28,14,32,20.70
2011,07,28,14,33,20.70
2011,07,28,14,34,20.70
2011,07,28,14,35,20.80
2011,07,28,14,36,20.80
2011,07,28,14,37,20.90
2011,07,28,14,38,20.80
2011,07,28,14,39,20.80
2011,07,28,14,40,20.80
2011,07,28,14,41,20.80
2011,07,28,14,42,21.00
2011,07,28,14,43,21.10
2011,07,28,14,44,21.10
2011,07,28,14,45,21.00
2011,07,28,14,46,21.00
2011,07,28,14,47,21.00
2011,07,28,14,48,21.00
2011,07,28,14,49,21.00
2011,07,28,14,50,21.00
2011,07,28,14,51,21.10
2011,07,28,14,52,21.30
2011,07,28,14,53,21.40
2011,07,28,14,54,21.60
2011,07,28,14,55,21.70
2011,07,28,14,56,21.80
2011,07,28,14,57,21.90
2011,07,28,14,58,21.90
2011,07,28,14,59,22.00
2011,07,28,15,00,22.00
2011,07,28,15,01,22.10
2011,07,28,15,02,22.20
2011,07,28,15,03,22.20
2011,07,28,15,04,22.20
2011,07,28,15,05,22.20
2011,07,28,15,06,22.20
2011,07,28,15,07,22.20
2011,07,28,15,08,22.20
2011,07,28,15,09,22.20
2011,07,28,15,10,22.20
2011,07,28,15,11,22.30
2011,07,28,15,12,22.40
2011,07,28,15,13,22.50
2011,07,28,15,14,22.50
2011,07,28,15,15,22.60
2011,07,28,15,16,22.60
2011,07,28,15,17,22.60
2011,07,28,15,18,22.60
2011,07,28,15,19,22.70
2011,07,28,15,20,22.70
2011,07,28,15,21,22.80
2011,07,28,15,22,22.80
2011,07,28,15,23,22.90
2011,07,28,15,24,22.90
2011,07,28,15,25,22.80
2011,07,28,15,26,22.80
2011,07,28,15,27,22.80
2011,07,28,15,28,22.80
2011,07,28,15,29,22.80
2011,07,28,15,30,22.90
2011,07,28,15,31,22.90
2011,07,28,15,32,23.10
2011,07,28,15,33,23.30
2011,07,28,15,34,23.40
2011,07,28,15,35,23.40
2011,07,28,15,36,23.40
2011,07,28,15,37,23.40
2011,07,28,15,38,23.30
2011,07,28,15,39,23.10
2011,07,28,15,40,22.90
2011,07,28,15,41,22.90
2011,07,28,15,42,22.70
2011,07,28,15,43,22.60
2011,07,28,15,44,22.60
2011,07,28,15,45,22.60
2011,07,28,15,46,22.70
2011,07,28,15,47,22.70
2011,07,28,15,48,22.70
2011,07,28,15,49,22.60
2011,07,28,15,50,22.60
2011,07,28,15,51,22.70
2011,07,28,15,52,22.70
2011,07,28,15,53,22.80
2011,07,28,15,54,22.90
2011,07,28,15,55,22.90
2011,07,28,15,56,22.90
2011,07,28,15,57,23.00
2011,07,28,15,58,23.20
2011,07,28,15,59,23.30
2011,07,28,16,00,23.30
2011,07,28,16,01,23.40
2011,07,28,16,02,23.30
2011,07,28,16,03,23.30
2011,07,28,16,04,23.40
2011,07,28,16,05,23.40
2011,07,28,16,06,23.50
2011,07,28,16,07,23.40
2011,07,28,16,08,23.20
2011,07,28,16,09,23.20
2011,07,28,16,10,23.30
2011,07,28,16,11,23.40
2011,07,28,16,12,23.50
2011,07,28,16,13,23.60
2011,07,28,16,14,23.60
2011,07,28,16,15,23.70
2011,07,28,16,16,23.70
2011,07,28,16,17,23.70
2011,07,28,16,18,23.70
2011,07,28,16,19,23.80
2011,07,28,16,20,23.80
2011,07,28,16,21,23.90
2011,07,28,16,22,23.80
2011,07,28,16,23,23.60
2011,07,28,16,24,23.40
2011,07,28,16,25,23.50
2011,07,28,16,26,23.30
2011,07,28,16,27,23.30
2011,07,28,16,28,23.30
2011,07,28,16,29,23.30
2011,07,28,16,30,23.30
2011,07,28,16,31,23.50
2011,07,28,16,32,23.60
2011,07,28,16,33,23.70
2011,07,28,16,34,23.70
2011,07,28,16,35,23.70
2011,07,28,16,36,23.70
2011,07,28,16,37,23.70
2011,07,28,16,38,23.70
2011,07,28,16,39,23.70
2011,07,28,16,40,23.70
2011,07,28,16,41,23.80
2011,07,28,16,42,23.80
2011,07,28,16,43,23.80
2011,07,28,16,44,23.80
2011,07,28,16,45,23.80
2011,07,28,16,46,23.80
2011,07,28,16,47,23.80
2011,07,28,16,48,23.70
2011,07,28,16,49,23.70
2011,07,28,16,50,23.70
2011,07,28,16,51,23.80
2011,07,28,16,52,23.80
2011,07,28,16,53,23.80
2011,07,28,16,54,23.70
2011,07,28,16,55,23.70
2011,07,28,16,56,23.70
2011,07,28,16,57,23.60
2011,07,28,16,58,23.50
2011,07,28,16,59,23.40
2011,07,28,17,00,23.20
2011,07,28,17,01,23.10
2011,07,28,17,02,23.00
2011,07,28,17,03,22.90
2011,07,28,17,04,22.80
2011,07,28,17,05,22.80
2011,07,28,17,06,22.90
2011,07,28,17,07,22.80
2011,07,28,17,08,22.80
2011,07,28,17,09,22.80
2011,07,28,17,10,22.80
2011,07,28,17,11,22.90
2011,07,28,17,12,22.90
2011,07,28,17,13,23.10
2011,07,28,17,14,23.00
2011,07,28,17,15,23.00
2011,07,28,17,16,23.10
2011,07,28,17,17,23.10
2011,07,28,17,18,23.20
2011,07,28,17,19,23.20